South Lake Tahoe, CA

2:57 AM PST on January 21, 2017 (GMT -0800)
South Lake Tahoe

Weather History for KTVL - January, 2017

Change the Weather History Date:

Wednesday, January 11, 2017

  Actual Average Record
Temperature  
Mean Temperature 29 °F 30 °F  
Max Temperature 35 °F 43 °F 60 °F (1990)
Min Temperature 23 °F 16 °F -4 °F (1989)
Degree Days  
Heating Degree Days 36 35  
Month to date heating degree days 379 392  
Since 1 July heating degree days 3282 3575  
Cooling Degree Days 0 0  
Month to date cooling degree days 0 0  
Year to date cooling degree days 0 0  
Moisture  
Dew Point 25 °F    
Average Humidity 84    
Maximum Humidity 92    
Minimum Humidity 75    
Precipitation  
Precipitation 0.19 in - 1.50 in (1940)
Month to date precipitation 9.58  
Year to date precipitation 9.58  
Sea Level Pressure  
Sea Level Pressure 29.72 in    
Wind  
Wind Speed 14 mph (SSW)    
Max Wind Speed 24 mph    
Max Gust Speed 46 mph    
Visibility 3 miles    
Events Fog , Snow    
T = Trace of Precipitation, MM = Missing Value Source: NWS Daily Summary

Daily Weather History Graph

Daily Weather History Graph

Search for Another Location

Airport or City:

Trip Planner

Search our weather history database for the weather conditions in past years. The results will help you decide how hot, cold, wet, or windy it might be!

Date:

Astronomy

Jan. 11, 2017 Rise Set
Actual Time 7:18 AM PST 4:58 PM PST
Civil Twilight 6:48 AM PST 5:27 PM PST
Nautical Twilight 6:15 AM PST 6:00 PM PST
Astronomical Twilight 5:43 AM PST 6:32 PM PST
Moon 4:37 PM PST (1/11) 6:18 AM PST (1/11)
Length of Visible Light 10h 39m
Length of Day
9h 40m
Waxing Gibbous, 99% of the Moon is Illuminated
Jan 11
Waxing Gibbous
Jan 12
Full
Jan 19
Last Quarter
Jan 27
New
Feb 3
First Quarter

Hourly Weather History & Observations

Time (PST) Temp. Windchill Dew Point Humidity Pressure Visibility Wind Dir Wind Speed Gust Speed Precip Events Conditions
12:22 AM 34.0 °F 24.2 °F 28.0 °F 79% 29.59 in 1.8 mi SW 15.0 mph 40.3 mph 0.01 in Snow Light Snow
12:29 AM 35.1 °F 23.8 °F 27.0 °F 72% 29.58 in 3.0 mi SSW 20.7 mph 43.7 mph 0.01 in Snow Light Snow
12:44 AM 34.0 °F 24.2 °F 28.0 °F 79% 29.57 in 1.8 mi SSW 15.0 mph 27.6 mph 0.01 in Snow Light Snow
12:53 AM 34.0 °F 23.0 °F 28.0 °F 79% 29.55 in 1.5 mi SSW 18.4 mph 34.5 mph 0.01 in Snow Light Snow
1:43 AM 34.0 °F 23.0 °F 26.1 °F 73% 29.59 in 3.0 mi SSW 18.4 mph 41.4 mph 0.00 in Snow Light Snow
1:53 AM 33.1 °F 19.8 °F 25.0 °F 72% 29.55 in 1.5 mi SSW 26.5 mph 42.6 mph 0.01 in Snow Light Snow
2:49 AM 30.2 °F 19.3 °F 26.6 °F 86% 29.63 in 1.0 mi SSW 15.0 mph 33.4 mph 0.00 in Snow Light Snow
2:53 AM 32.0 °F 20.5 °F 26.1 °F 79% 29.62 in 1.2 mi SSW 18.4 mph 33.4 mph 0.00 in Snow Light Snow
3:03 AM 32.0 °F 23.0 °F 25.0 °F 75% 29.64 in 3.0 mi SSW 11.5 mph 33.4 mph 0.00 in   Overcast
3:12 AM 32.0 °F 22.1 °F 25.0 °F 75% 29.64 in 3.0 mi SSW 13.8 mph 33.4 mph 0.00 in   Overcast
3:28 AM 30.9 °F 19.1 °F 26.1 °F 82% 29.64 in 2.0 mi SSW 18.4 mph 38.0 mph 0.00 in   Overcast
3:49 AM 30.2 °F 16.8 °F 26.6 °F 86% 29.64 in 1.0 mi SSW 23.0 mph 39.1 mph 0.00 in Snow Light Snow
3:53 AM 30.9 °F 17.5 °F 26.1 °F 82% 29.63 in 0.8 mi SSW 24.2 mph 39.1 mph 0.01 in Snow Light Snow
4:01 AM 30.9 °F 18.7 °F 25.0 °F 79% 29.65 in 1.8 mi South 19.6 mph 39.1 mph 0.00 in Snow Light Snow
4:10 AM 30.9 °F 19.8 °F 25.0 °F 79% 29.65 in 2.5 mi SSW 16.1 mph 34.5 mph 0.00 in   Overcast
4:19 AM 30.9 °F 18.4 °F 26.1 °F 82% 29.65 in 1.0 mi South 20.7 mph 34.5 mph 0.00 in Snow Light Snow
4:31 AM 30.0 °F 18.7 °F 27.0 °F 88% 29.65 in 0.5 mi South 16.1 mph 31.1 mph 0.00 in Fog , Snow Snow
4:34 AM 30.0 °F 18.7 °F 27.0 °F 88% 29.65 in 0.5 mi South 16.1 mph 31.1 mph 0.00 in Fog , Snow Snow
4:43 AM 30.0 °F 20.5 °F 27.0 °F 88% 29.65 in 1.0 mi SSW 11.5 mph 19.6 mph 0.00 in Snow Light Snow
4:49 AM 30.2 °F 20.8 °F 28.4 °F 93% 29.65 in 0.8 mi SSW 11.5 mph 18.4 mph 0.00 in Snow Light Snow
4:53 AM 30.0 °F 19.5 °F 28.0 °F 92% 29.63 in 0.8 mi South 13.8 mph 20.7 mph 0.00 in Snow Light Snow
5:18 AM 30.9 °F 19.8 °F 25.0 °F 79% 29.65 in 0.8 mi SSW 16.1 mph 38.0 mph 0.01 in Snow Light Snow
5:25 AM 30.9 °F 19.4 °F 24.1 °F 76% 29.65 in 2.0 mi SSW 17.3 mph 28.8 mph 0.01 in Snow Light Snow
5:35 AM 30.9 °F 19.1 °F 24.1 °F 76% 29.64 in 4.0 mi SSW 18.4 mph 34.5 mph 0.01 in   Haze
5:49 AM 30.2 °F 18.5 °F 24.8 °F 80% 29.66 in 1.5 mi SSW 17.3 mph 32.2 mph 0.01 in Snow Light Snow
5:53 AM 30.9 °F 19.8 °F 25.0 °F 79% 29.64 in 1.0 mi South 16.1 mph 32.2 mph 0.01 in Snow Light Snow
6:04 AM 30.9 °F 21.7 °F 25.0 °F 79% 29.64 in 3.0 mi SSW 11.5 mph 27.6 mph 0.00 in Snow Light Snow
6:13 AM 30.0 °F 20.5 °F 26.1 °F 85% 29.65 in 1.8 mi South 11.5 mph 21.9 mph 0.00 in Snow Light Snow
6:41 AM 30.9 °F 21.2 °F 25.0 °F 79% 29.66 in 3.0 mi SSW 12.7 mph 21.9 mph 0.00 in Snow Light Snow
6:53 AM 30.0 °F 17.9 °F 24.1 °F 79% 29.66 in 2.5 mi South 18.4 mph 29.9 mph 0.00 in Snow Light Snow
7:12 AM 28.9 °F 19.2 °F 25.0 °F 85% 29.68 in 1.0 mi SSW 11.5 mph 23.0 mph 0.00 in Snow Light Snow
7:19 AM 28.9 °F 19.8 °F 24.1 °F 82% 29.68 in 0.8 mi SSW 10.4 mph 20.7 mph 0.00 in Snow Light Snow
7:53 AM 28.0 °F 18.6 °F 24.1 °F 85% 29.71 in 0.5 mi South 10.4 mph 18.4 mph 0.01 in Fog , Snow Snow
8:29 AM 28.9 °F 18.2 °F 25.0 °F 85% 29.71 in 0.5 mi SSW 13.8 mph 25.3 mph 0.01 in Fog , Snow Light Snow
8:53 AM 30.0 °F 20.5 °F 25.0 °F 82% 29.70 in 1.0 mi South 11.5 mph 27.6 mph 0.02 in Snow Light Snow
9:06 AM 30.0 °F 19.5 °F 25.0 °F 82% 29.71 in 0.8 mi SSW 13.8 mph 20.7 mph 0.00 in Snow Light Snow
9:20 AM 28.9 °F 18.2 °F 27.0 °F 92% 29.72 in 0.2 mi South 13.8 mph - 0.00 in Fog , Snow Snow
9:44 AM 30.9 °F 22.2 °F 26.1 °F 82% 29.72 in 0.8 mi SW 10.4 mph 23.0 mph 0.00 in Snow Light Snow
9:53 AM 32.0 °F 22.1 °F 26.1 °F 79% 29.69 in 1.0 mi South 13.8 mph 24.2 mph 0.01 in Snow Light Snow
10:03 AM 32.0 °F 21.2 °F 27.0 °F 82% 29.72 in 0.8 mi South 16.1 mph 28.8 mph 0.00 in Snow Light Snow
10:10 AM 32.0 °F 20.1 °F 27.0 °F 82% 29.73 in 2.0 mi SSW 19.6 mph 29.9 mph 0.00 in Snow Light Snow
10:21 AM 33.1 °F 22.6 °F 25.0 °F 72% 29.72 in 4.0 mi SSW 16.1 mph 35.7 mph 0.00 in   Haze
10:26 AM 33.1 °F 23.0 °F 25.0 °F 72% 29.72 in 1.8 mi SSW 15.0 mph 25.3 mph 0.00 in Snow Light Snow
10:53 AM 32.0 °F 23.0 °F 26.1 °F 79% 29.71 in 1.0 mi SSW 11.5 mph 23.0 mph 0.00 in Snow Light Snow
10:57 AM 32.0 °F 23.6 °F 27.0 °F 82% 29.74 in 0.8 mi SSW 10.4 mph 23.0 mph 0.00 in Snow Light Snow
11:08 AM 30.9 °F 22.2 °F 27.0 °F 85% 29.75 in 0.2 mi SW 10.4 mph 18.4 mph 0.00 in Fog , Snow Snow
11:47 AM 30.2 °F 20.8 °F 26.6 °F 86% 29.74 in 0.5 mi SSW 11.5 mph 20.7 mph 0.02 in Fog , Snow Light Snow
11:53 AM 30.9 °F 19.1 °F 27.0 °F 85% 29.72 in 0.8 mi SSW 18.4 mph 24.2 mph 0.02 in Snow Light Snow
12:10 PM 30.9 °F 19.8 °F 28.0 °F 89% 29.74 in 1.2 mi SSW 16.1 mph 28.8 mph 0.00 in Snow Light Snow
12:53 PM 32.0 °F 24.2 °F 26.1 °F 79% 29.72 in 1.8 mi SSW 9.2 mph - 0.01 in Snow Light Snow
1:00 PM 32.0 °F 22.5 °F 25.0 °F 75% 29.74 in 2.0 mi SSW 12.7 mph 24.2 mph 0.00 in Snow Light Snow
1:08 PM 30.9 °F 20.7 °F 25.0 °F 79% 29.75 in 1.5 mi South 13.8 mph 24.2 mph 0.00 in Snow Light Snow
1:18 PM 33.1 °F 24.4 °F 24.1 °F 70% 29.74 in 3.0 mi SW 11.5 mph 25.3 mph 0.00 in Snow Light Snow
1:26 PM 32.0 °F 22.1 °F 24.1 °F 73% 29.74 in 6.0 mi SSW 13.8 mph 21.9 mph 0.00 in   Haze
1:29 PM 32.0 °F 22.1 °F 24.1 °F 73% 29.74 in 2.5 mi SSW 13.8 mph 20.7 mph 0.00 in Snow Light Snow
1:33 PM 30.9 °F 19.8 °F 25.0 °F 79% 29.75 in 0.8 mi South 16.1 mph 27.6 mph 0.00 in Snow Light Snow
1:49 PM 30.2 °F 19.8 °F 24.8 °F 80% 29.75 in 2.5 mi South 13.8 mph 20.7 mph 0.00 in Snow Light Snow
1:53 PM 32.0 °F 23.6 °F 25.0 °F 75% 29.73 in 7.0 mi SSW 10.4 mph 19.6 mph 0.00 in   Overcast
2:42 PM 30.9 °F 20.7 °F 23.0 °F 72% 29.76 in 4.0 mi South 13.8 mph 24.2 mph 0.00 in Snow Light Snow
2:45 PM 30.0 °F 20.0 °F 24.1 °F 79% 29.76 in 1.5 mi South 12.7 mph 24.2 mph 0.00 in Snow Light Snow
2:53 PM 28.9 °F 21.9 °F 25.0 °F 85% 29.77 in 0.8 mi SSW 6.9 mph 19.6 mph 0.00 in Snow Light Snow
3:04 PM 30.0 °F 25.2 °F 25.0 °F 82% 29.77 in 1.5 mi SW 4.6 mph - 0.00 in Snow Light Snow
3:14 PM 30.0 °F 21.1 °F 24.1 °F 79% 29.78 in 3.0 mi South 10.4 mph 19.6 mph 0.00 in Snow Light Snow
3:29 PM 30.0 °F 20.0 °F 24.1 °F 79% 29.78 in 1.8 mi South 12.7 mph - 0.00 in Snow Light Snow
3:33 PM 30.0 °F 22.4 °F 24.1 °F 79% 29.78 in 2.0 mi South 8.1 mph - 0.00 in Snow Light Snow
3:44 PM 28.9 °F 20.4 °F 25.0 °F 85% 29.79 in 1.2 mi South 9.2 mph - 0.00 in Snow Light Snow
3:53 PM 28.9 °F 19.2 °F 25.0 °F 85% 29.79 in 0.5 mi SSW 11.5 mph - 0.00 in Fog , Snow Snow
4:02 PM 28.9 °F 21.9 °F 25.0 °F 85% 29.78 in 2.5 mi SSW 6.9 mph - 0.00 in Snow Light Snow
4:04 PM 30.0 °F 24.1 °F 24.1 °F 79% 29.78 in 6.0 mi Variable 5.8 mph - 0.00 in Snow Light Snow
4:12 PM 30.0 °F 24.1 °F 23.0 °F 75% 29.78 in 10.0 mi Variable 5.8 mph - 0.00 in   Overcast
4:26 PM 30.0 °F 21.1 °F 21.9 °F 72% 29.78 in 3.0 mi South 10.4 mph 18.4 mph 0.01 in Snow Light Snow
4:31 PM 30.0 °F 21.7 °F 21.9 °F 72% 29.78 in 5.0 mi South 9.2 mph 18.4 mph 0.01 in Snow Light Snow
4:53 PM 28.9 °F 19.8 °F 21.9 °F 75% 29.79 in 10.0 mi South 10.4 mph 19.6 mph 0.01 in   Partly Cloudy
5:29 PM 28.0 °F 20.0 °F 24.1 °F 85% 29.78 in 4.0 mi South 8.1 mph - 0.00 in Snow Light Snow
5:37 PM 28.0 °F 21.7 °F 24.1 °F 85% 29.78 in 5.0 mi South 5.8 mph - 0.00 in Snow Light Snow
5:53 PM 28.0 °F 19.3 °F 23.0 °F 81% 29.79 in 10.0 mi South 9.2 mph 21.9 mph 0.00 in   Mostly Cloudy
6:53 PM 28.9 °F 21.1 °F 23.0 °F 78% 29.79 in 10.0 mi SSW 8.1 mph - 0.00 in   Overcast
7:11 PM 28.9 °F 21.9 °F 23.0 °F 78% 29.78 in 4.0 mi SSE 6.9 mph - 0.00 in Snow Light Snow
7:22 PM 28.0 °F 22.8 °F 24.1 °F 85% 29.77 in 7.0 mi Variable 4.6 mph - 0.00 in Snow Light Snow
7:34 PM 28.0 °F 22.8 °F 24.1 °F 85% 29.78 in 4.0 mi South 4.6 mph - 0.00 in Snow Light Snow
7:39 PM 28.0 °F 22.8 °F 25.0 °F 88% 29.78 in 1.5 mi South 4.6 mph - 0.00 in Snow Light Snow
7:43 PM 28.0 °F 22.8 °F 25.0 °F 88% 29.78 in 0.8 mi South 4.6 mph - 0.00 in Snow Light Snow
7:53 PM 28.0 °F 24.2 °F 25.0 °F 88% 29.81 in 1.0 mi SE 3.5 mph - 0.01 in Snow Light Snow
8:11 PM 28.0 °F 21.7 °F 26.1 °F 92% 29.80 in 0.8 mi South 5.8 mph - 0.01 in Snow Light Snow
8:43 PM 28.0 °F - 25.0 °F 88% 29.80 in 1.2 mi Calm Calm - 0.05 in Snow Light Snow
8:53 PM 28.0 °F 20.8 °F 24.1 °F 85% 29.81 in 1.2 mi Variable 6.9 mph - 0.05 in Snow Light Snow
9:07 PM 27.0 °F 23.0 °F 24.1 °F 89% 29.80 in 1.5 mi SE 3.5 mph - 0.00 in Snow Light Snow
9:14 PM 27.0 °F - 24.1 °F 89% 29.80 in 3.0 mi Calm Calm - 0.00 in Snow Light Snow
9:23 PM 28.0 °F 22.8 °F 21.9 °F 78% 29.81 in 9.0 mi SSW 4.6 mph - 0.00 in   Overcast
9:39 PM 28.0 °F 20.8 °F 21.9 °F 78% 29.81 in 2.5 mi SSW 6.9 mph 17.3 mph 0.00 in Snow Light Snow
9:53 PM 27.0 °F 19.5 °F 24.1 °F 89% 29.82 in 2.5 mi Variable 6.9 mph - 0.01 in Snow Light Snow
10:02 PM 28.0 °F 22.8 °F 23.0 °F 81% 29.81 in 4.0 mi Variable 4.6 mph - 0.00 in Snow Light Snow
10:09 PM 28.0 °F 20.8 °F 23.0 °F 81% 29.81 in 8.0 mi SSW 6.9 mph - 0.00 in Snow Light Snow
10:26 PM 28.0 °F 20.0 °F 21.9 °F 78% 29.80 in 10.0 mi SSW 8.1 mph 17.3 mph 0.00 in   Overcast
10:35 PM 27.0 °F 18.0 °F 21.9 °F 81% 29.80 in 9.0 mi South 9.2 mph - 0.00 in   Overcast
10:53 PM 25.0 °F 19.3 °F 21.0 °F 85% 29.81 in 10.0 mi Variable 4.6 mph - 0.00 in   Mostly Cloudy
11:53 PM 24.1 °F - 21.0 °F 88% 29.81 in 10.0 mi Calm Calm - 0.00 in   Mostly Cloudy